Regional Weather Roundup
Issued by NWS

Home | Current Version | Previous Version | Graphics & Text | Print | Product List | Glossary On
Versions: 1 2 3 4 5 6 7 8 9 10 11 12 13 14 15 16 17 18 19 20 21 22 23 24 25 26 27 28 29 30 31 32 33 34 35 36 37 38 39 40 41 42 43 44 45 46 47 48 49 50
000
ASUS43 KLSX 210659
RWRMO

WEATHER SUMMARY FOR MISSOURI
NATIONAL WEATHER SERVICE SPRINGFIELD MO
200 AM CDT MON APR 21 2014

NOTE: "FAIR" INDICATES FEW OR NO CLOUDS BELOW 12,000 FEET WITH NO
       SIGNIFICANT WEATHER AND/OR OBSTRUCTIONS TO VISIBILITY.
       CURRENT SKY AND/OR WEATHER CONDITIONS ARE NOT AVAILABLE FOR
       CHILLICOTHE AND FARMINGTON.

MOZ001>031-035>038-043-044-053-054-210800-
...NORTHERN AND WESTERN MISSOURI...

CITY           SKY/WX    TMP DP  RH WIND       PRES   REMARKS
KANSAS CTY INT CLOUDY    65  54  67 S10       30.00S
KANSAS C DTWN  CLOUDY    68  54  60 SW6       29.99F
LEE`S SUMMIT   CLOUDY    65  53  65 SW6       30.00F
ST JOSEPH      LGT RAIN  64  55  72 S3        29.98F
KIRKSVILLE     CLOUDY    66  52  60 W6        30.01S

$$
MOZ066>068-077>081-088>096-101>105-210800-
...SOUTHWEST MISSOURI...

CITY           SKY/WX    TMP DP  RH WIND       PRES   REMARKS
SPRINGFIELD    CLOUDY    63  51  65 S8        30.02F
JOPLIN         LGT RAIN  61  58  90 SW8       30.04S

$$
MOZ032>034-039>042-045>050-055>058-069>072-210800-
...CENTRAL MISSOURI...

CITY           SKY/WX    TMP DP  RH WIND       PRES   REMARKS
COLUMBIA       MOCLDY    63  50  62 CALM      30.02S
JEFFERSON CITY CLOUDY    60  52  74 CALM      30.01F
ROLLA          MOCLDY    62  47  57 S7        30.01F
SEDALIA        PTCLDY    61  53  75 NW5       30.02S
OSAGE BEACH    MOCLDY    61  48  63 CALM      30.03F

$$
MOZ051-052-059>065-210800-
...EAST CENTRAL MISSOURI...

CITY           SKY/WX    TMP DP  RH WIND       PRES   REMARKS
ST LOUIS INTL  MOCLDY    69  43  38 S7        30.03S
SPIRIT OF STL  MOCLDY    66  43  43 S3        30.01F
ST CHARLES     MOCLDY    62  50  64 CALM      30.01F

$$
MOZ072>076-082>087-097>100-106>115-210800-
...SOUTH CENTRAL AND SOUTHEAST MISSOURI...

CITY           SKY/WX    TMP DP  RH WIND       PRES   REMARKS
CAPE GIRARDEAU PTCLDY    55  49  80 CALM      30.06F
FARMINGTON     PTCLDY    63  45  51 S3        30.07F
POPLAR BLUFF   CLOUDY    59  51  75 CALM      30.04F
WEST PLAINS    CLOUDY    64  48  56 S5        30.06F

$$



USA.gov is the U.S. government's official web portal to all federal, state and local government web resources and services.